SCP
0 0 0 0 0 0 0 0 0 0 0 0 0 0 0 0 0 0 0 0 0 0 0 0 1 1 1 0 0 0 0 0 0 0 0 0 0 0 0 0 0 0 0 0 0 0 0 0 0
0 0 0 0 0 -0 0 0 0 0 0 0 0 0 0 0 0 0 0 0 0 0 0 0 1 1 1 0 0 0 0 0 0 0 0 0 0 0 0 0 0 0 0 0 0 0 0 0 0
0 0 0 0 0 -0 0 0 0 0 0 0 0 0 0 0 0 0 0 0 0 0 0 0 1 1 1 0 0 0 0 0 0 0 0 0 0 0 0 0 0 0 0 0 0 0 0 0 0
0 0 0 0 0 -0 0 0 0 0 0 0 0 0 0 0 0 0 0 0 0 0 0 0 1 1 1 0 0 0 0 0 0 0 0 0 0 0 0 0 0 0 0 0 0 0 0 0 0
0 0 0 0 0 -0 0 0 0 0 0 0 0 0 0 0 0 0 0 0 0 0 0 0 1 1 1 0 0 0 0 0 0 0 0 0 0 0 0 0 0 0 0 0 0 0 0 0 0
0 0 0 0 0 0 0 0 0 0 0 0 0 0 0 0 0 0 0 0 0 0 0 0 1 1 1 0 0 0 0 0 0 0 0 0 0 0 0 0 0 0 0 0 0 0 0 0 0
0 0 0 0 0 0 0 0 0 0 0 0 0 0 0 0 0 0 0 0 0 0 0 0 0 0 0 0 0 0 0 0 0 0 0 0 0 0 0 0 0 0 0 0 0 0 0 0 0
0 0 0 0 0 0 0 0 0 0 0 0 0 0 0 0 0 0 0 0 0 0 0 0 0 0 0 0 0 0 0 0 0 0 0 0 0 0 0 0 0 0 0 0 0 0 0 0 0
0 0 0 0 0 0 0 0 0 0 0 0 0 0 0 0 0 0 0 0 0 0 0 0 0 0 0 0 0 0 0 0 0 0 0 0 0 0 0 0 0 0 0 0 0 0 0 0 0
0 0 0 0 0 0 0 0 0 0 0 0 0 0 0 0 0 0 0 0 0 0 0 0 0 0 0 0 0 0 0 0 0 0 0 0 0 0 0 0 0 0 0 0 0 0 0 0 0
0 0 0 0 0 0 0 0 0 0 0 0 0 0 0 0 0 0 0 0 0 0 0 0 0 0 0 0 0 0 0 0 0 0 0 0 0 0 0 0 0 0 0 0 0 0 0 0 0
0 0 0 0 0 0 0 0 0 0 0 0 0 0 0 0 0 0 0 0 0 0 0 0 0 0 0 0 0 0 0 0 0 0 0 0 0 0 0 0 0 0 0 0 0 0 0 0 0
0 0 0 0 0 0 0 0 0 0 0 0 0 0 0 0 0 0 0 0 0 0 0 0 0 0 0 0 0 0 0 0 0 0 0 0 0 0 0 0 0 0 0 0 0 0 0 0 0
0 0 0 0 0 0 0 0 0 0 0 0 0 0 0 0 0 0 0 0 0 0 0 0 0 0 0 0 0 0 0 0 0 0 0 0 0 0 0 0 0 0 0 0 0 0 0 0 0
0 0 0 0 0 0 0 0 0 0 0 0 0 0 0 0 0 0 0 0 0 0 0 0 0 0 0 0 0 0 0 0 0 0 0 0 0 0 0 0 0 0 0 0 0 0 0 0 0
0 0 0 0 0 0 0 0 0 0 0 0 0 0 0 0 0 0 0 0 0 0 0 0 0 0 0 0 0 0 0 0 0 0 0 0 0 0 0 0 0 0 0 0 0 0 0 0 0
0 0 0 0 0 0 0 0 0 0 0 0 0 0 0 0 0 0 0 0 0 0 0 0 0 0 0 0 0 0 0 0 0 0 0 0 0 0 0 0 0 0 0 0 0 0 0 0 0
0 0 0 0 0 0 0 0 0 0 0 0 0 0 0 0 0 0 0 0 0 0 0 0 0 0 0 0 0 0 0 0 0 0 0 0 0 0 0 0 0 0 0 0 0 0 0 0 0
0 0 0 0 0 0 0 0 0 0 0 0 0 0 0 0 0 0 0 0 0 0 0 0 0 0 0 0 0 0 0 0 0 0 0 0 0 0 0 0 0 0 0 0 0 0 0 0 0
0 0 0 0 0 0 0 0 0 0 0 0 0 0 0 0 0 0 0 0 0 0 0 0 0 0 0 0 0 0 0 0 0 0 0 0 0 0 0 0 0 0 0 0 0 0 0 0 0
0 0 0 0 0 0 0 0 0 0 0 0 0 0 0 0 0 0 0 0 0 0 0 0 1 1 0 0 0 0 0 0 0 0 0 0 0 0 0 0 0 0 0 0 0 0 0 0 0
0 0 0 0 0 0 0 0 0 0 0 0 0 0 0 0 0 0 0 0 0 0 0 0 1 1 1 0 0 0 0 0 0 0 0 0 0 0 0 0 0 0 0 0 0 0 0 0 0
0 0 0 0 0 0 0 0 0 0 0 0 0 0 0 0 0 0 0 0 0 0 0 1 1 1 1 1 0 0 0 0 0 0 0 0 0 0 0 0 0 0 0 0 0 0 0 0 0
0 0 0 0 0 0 0 0 0 0 0 0 0 0 0 0 0 0 0 0 1 1 1 1 1 1 1 1 1 0 0 0 0 0 0 0 0 0 0 0 0 0 0 0 0 0 0 0 0
0 0 0 0 0 0 0 0 0 0 0 0 0 0 0 0 0 1 1 1 1 1 1 1 1 1 1 1 1 0 0 0 0 0 0 0 0 0 0 0 0 0 0 0 0 0 0 0 0
0 0 0 0 0 0 0 0 0 0 0 0 0 0 0 0 0 1 1 1 1 1 1 1 1 1 1 1 1 1 0 0 0 0 0 0 0 0 0 0 0 0 0 0 0 0 0 0 0
0 0 0 0 0 0 0 0 0 0 0 0 0 0 0 0 0 1 1 1 1 1 1 1 1 1 1 1 1 1 0 0 0 0 0 0 0 0 0 0 0 0 0 0 0 0 0 0 0
0 0 0 0 0 0 0 0 0 0 0 0 0 0 0 0 0 1 0 0 1 1 1 1 1 1 1 1 1 0 0 0 0 0 0 0 0 0 0 0 0 0 0 0 0 0 0 0 0
0 0 0 0 0 0 0 0 0 0 0 0 0 0 0 0 0 1 1 0 0 1 1 1 1 1 1 1 1 0 0 0 0 0 0 0 0 0 0 0 0 0 0 0 0 0 0 0 0
0 0 0 0 0 0 0 0 0 0 0 0 0 0 0 0 0 1 1 1 1 1 1 1 1 1 1 1 0 0 0 0 0 0 0 0 0 0 0 0 0 0 0 0 0 0 0 0 0
Wind_Speed
3 3 2 2 5 6 2 2 0 1 2 1 3 4 5 3 2 2 1 6 8 7 6 8 9 8 7 7 7 7 7 7 7 7 8 7 8 7 7 7 7 6 7 7 7 7 7 7 7
3 2 2 4 6 3 2 2 1 1 2 2 3 4 5 3 2 4 3 5 8 7 5 6 10 9 8 7 7 6 7 7 7 7 7 7 7 7 6 6 6 6 6 6 6 6 6 6 6
2 1 3 5 4 3 2 1 1 1 2 1 3 4 4 2 3 3 4 9 8 6 5 6 10 9 8 7 7 6 6 6 6 6 6 6 6 6 6 5 5 6 6 5 6 6 5 5 5
2 3 5 5 1 2 3 3 2 1 1 3 3 4 3 1 4 4 8 10 8 5 4 5 10 9 8 7 6 6 6 6 6 5 5 5 5 5 5 5 5 5 4 5 5 5 4 4 4
3 4 6 3 2 3 2 2 2 2 1 3 4 3 2 3 5 9 10 10 8 5 3 4 9 8 7 7 6 5 5 5 4 4 4 4 4 3 3 4 4 3 3 4 4 4 4 3 3
4 5 5 1 3 2 1 1 1 2 2 2 3 4 1 1 6 8 9 7 6 6 4 3 7 8 7 6 5 5 4 4 3 3 2 3 3 2 2 3 3 3 2 3 3 4 3 4 4
4 4 3 1 2 2 2 1 3 3 2 2 4 4 1 1 4 7 7 6 5 4 4 2 3 4 6 6 5 4 3 2 2 2 2 2 2 1 2 2 3 3 2 2 2 3 3 4 5
4 5 2 1 1 3 1 1 1 4 2 3 4 6 5 5 6 7 6 5 4 3 2 2 2 2 1 2 4 4 3 2 1 1 1 1 2 2 2 2 2 2 2 2 2 2 3 4 5
4 5 1 3 3 3 1 1 1 2 5 3 2 4 5 10 10 8 6 4 3 3 2 2 2 1 1 1 2 2 2 1 0 1 2 2 2 2 2 2 2 2 3 3 2 3 5 5 5
4 3 5 4 4 3 1 1 2 2 3 2 2 4 9 11 11 9 8 7 6 5 4 3 3 2 1 1 0 0 0 1 1 1 2 2 2 2 3 4 4 4 4 3 3 3 4 4 3
3 4 3 3 3 2 1 1 2 5 3 5 7 9 12 11 10 9 9 8 7 5 4 4 3 2 2 1 0 0 0 1 1 1 1 1 2 2 2 2 3 3 4 3 3 2 2 3 3
2 3 3 3 1 1 3 2 2 4 6 5 9 13 13 13 11 10 10 8 5 5 5 4 4 3 2 1 1 1 0 0 0 1 1 1 1 1 2 2 2 2 2 3 3 2 3 3 3
2 2 2 2 3 3 2 3 3 3 1 5 10 11 12 12 10 8 7 7 6 5 5 4 4 4 3 2 1 1 1 0 0 0 1 1 1 1 1 1 2 2 2 2 3 2 3 3 3
2 2 3 3 1 0 2 0 1 3 3 8 10 10 10 10 9 7 6 6 6 6 6 4 4 4 3 2 2 1 1 1 0 0 0 1 1 0 1 1 2 2 2 2 2 2 2 2 2
0 2 4 2 1 0 3 2 2 2 6 8 8 8 8 7 7 7 8 8 7 6 5 5 5 4 4 3 2 2 1 1 1 0 0 1 1 1 1 1 1 1 1 2 2 3 2 2 2
3 3 2 4 1 0 4 3 4 2 7 7 7 8 7 6 7 7 7 6 6 5 5 5 5 5 4 3 2 2 1 1 1 0 0 1 1 1 1 1 1 1 1 1 2 2 2 2 2
4 1 1 4 1 1 2 4 4 2 6 7 7 8 7 6 6 6 7 7 7 7 6 6 5 5 5 4 2 1 1 1 0 0 0 0 1 1 1 1 1 1 1 1 1 2 1 2 1
2 1 1 3 2 2 0 4 4 2 5 6 6 6 6 8 9 8 7 6 6 6 6 6 5 5 4 3 2 1 1 1 0 0 0 0 0 1 1 1 1 1 1 1 1 2 2 1 1
3 2 2 4 2 0 2 4 4 2 3 4 5 5 6 8 6 4 5 5 5 5 6 7 6 5 4 3 2 2 1 0 0 0 0 0 0 1 1 1 1 1 1 1 1 2 2 1 1
2 1 2 4 2 0 1 3 4 3 5 7 7 7 7 5 4 4 5 5 6 6 7 7 7 6 5 4 2 2 2 1 1 0 0 0 0 1 1 1 1 1 1 1 1 1 1 1 1
3 4 4 3 3 3 1 5 3 3 2 3 5 6 6 7 7 6 6 6 6 6 7 7 7 6 5 4 3 3 2 2 1 1 1 1 0 1 1 1 1 1 1 1 0 1 2 1 0
4 5 5 3 1 2 1 2 6 3 3 4 5 5 6 6 6 6 6 6 7 7 6 6 6 6 5 5 5 4 3 2 2 1 1 0 0 0 1 1 1 1 1 1 1 1 1 2 1
6 2 2 2 3 0 2 2 7 3 4 6 6 6 6 6 6 7 7 7 6 5 5 6 6 6 5 5 6 5 3 2 1 1 1 0 1 0 0 1 1 1 1 1 1 1 1 1 2
3 5 5 5 5 0 3 3 6 3 5 5 4 4 5 4 5 5 4 4 3 4 5 5 6 5 5 5 5 5 4 3 2 1 1 1 1 0 0 1 1 1 1 1 1 1 1 1 1
4 6 4 4 3 5 2 3 8 6 4 5 5 4 3 3 3 3 4 4 5 5 6 7 7 6 6 6 6 5 5 4 4 3 2 2 1 1 1 1 1 1 1 1 1 1 1 1 1
3 8 8 5 5 4 1 4 7 4 2 2 1 1 2 2 2 3 4 5 5 6 6 7 7 7 6 6 5 4 4 3 2 2 2 2 2 2 1 1 1 1 1 1 1 1 1 1 1
5 3 5 7 3 0 4 5 6 2 2 2 1 1 1 2 2 2 2 4 5 5 6 7 7 6 6 6 5 4 3 3 2 2 2 2 2 1 1 1 1 1 1 1 1 1 1 1 1
5 7 6 6 5 3 4 4 4 3 2 0 0 1 1 1 2 2 2 3 4 4 4 5 6 6 5 5 5 4 3 3 3 2 2 2 2 1 1 1 1 1 0 1 1 1 1 1 1
3 3 5 4 5 6 3 7 5 6 4 3 3 2 2 2 2 2 1 1 2 3 4 4 5 5 4 4 4 4 3 2 2 2 2 2 1 1 2 2 2 1 1 0 1 1 0 1 1
4 5 7 5 3 4 4 7 4 3 3 3 3 2 1 1 2 1 1 1 3 3 3 4 5 5 4 4 4 3 3 3 3 2 2 2 2 1 2 2 2 1 1 1 1 1 1 1 1
Wind_Direction
151 133 132 90 55 49 18 313 282 354 20 53 94 103 114 110 151 173 172 141 137 139 151 155 154 151 144 134 125 117 110 104 98 95 96 96 95 94 92 89 91 96 100 102 102 106 110 118 126
134 141 86 62 74 54 318 305 318 244 154 119 80 79 80 67 71 110 131 149 138 141 143 154 156 153 148 140 131 124 115 106 101 97 95 95 94 91 91 89 89 94 98 103 106 108 109 115 123
158 148 78 68 83 153 233 263 185 79 117 77 73 62 87 122 135 153 162 140 130 137 141 164 155 154 151 145 139 131 120 112 105 100 96 93 91 86 85 84 83 88 89 94 105 105 106 112 122
110 52 53 65 48 231 212 224 183 112 32 50 96 66 58 67 154 149 132 135 133 138 146 168 154 154 152 148 142 135 125 116 108 102 97 92 88 81 75 73 75 82 86 87 94 97 95 96 126
64 72 57 41 308 277 242 229 184 140 85 73 90 88 42 8 105 122 131 139 142 142 148 164 155 157 157 153 145 138 129 122 115 107 99 89 82 76 67 64 61 71 85 87 86 87 88 79 105
56 64 74 8 303 295 256 203 146 117 123 110 103 105 49 87 121 133 135 137 140 142 142 151 160 159 161 158 152 143 135 126 118 112 93 79 78 74 61 52 49 56 76 89 97 98 97 85 94
101 94 129 199 295 305 234 172 134 132 124 146 127 111 129 165 143 130 125 123 125 132 132 146 159 163 164 163 158 153 145 132 121 110 87 68 62 57 50 41 39 40 59 81 90 97 102 105 103
121 101 94 243 245 275 262 93 131 131 137 128 126 142 188 191 137 118 107 105 118 128 138 151 146 139 146 165 172 168 162 155 136 75 40 44 32 22 17 12 24 34 41 55 60 84 102 115 115
89 79 178 216 200 246 257 83 31 92 113 114 133 163 174 139 132 122 114 119 146 164 166 165 166 153 132 163 190 180 187 194 358 0 16 24 16 7 355 359 1 11 26 35 49 77 100 111 111
92 131 222 216 198 199 218 173 165 115 117 112 86 96 124 137 145 149 155 167 181 190 191 182 183 174 153 191 108 70 124 27 17 13 23 32 30 6 19 7 13 16 18 21 41 76 93 100 97
140 186 234 250 224 187 195 197 149 143 201 204 174 153 146 152 159 168 173 177 189 191 191 192 187 180 171 172 142 79 50 27 6 15 31 46 40 17 17 10 4 3 10 15 39 65 73 84 95
166 239 227 256 240 173 179 177 161 192 223 195 166 155 156 163 174 179 180 179 175 177 194 189 183 181 185 163 166 166 159 63 25 10 36 66 48 20 9 10 359 8 11 32 51 68 69 81 93
199 259 269 246 268 230 171 185 191 248 269 126 136 148 164 173 180 184 181 174 168 181 192 186 177 180 174 160 178 156 183 166 135 40 36 80 82 27 12 3 12 14 22 37 50 63 71 84 95
232 257 294 288 280 190 147 226 144 251 129 129 144 161 173 179 178 173 174 178 182 187 190 180 174 176 161 165 171 162 155 146 91 52 358 90 108 72 38 22 23 15 21 42 60 64 72 71 84
333 349 341 330 333 260 104 358 262 219 135 143 160 169 177 183 177 183 187 187 190 188 182 175 174 167 164 175 183 159 151 145 155 215 42 90 95 93 70 39 24 6 24 55 71 68 65 72 80
42 46 347 302 348 62 126 245 277 162 149 164 175 179 185 194 192 197 191 186 183 178 174 179 174 167 175 178 173 157 153 152 177 171 86 99 111 107 86 52 2 1 49 69 84 78 77 68 72
31 67 261 300 337 72 128 240 269 176 165 179 186 189 191 198 205 205 198 190 183 180 174 174 173 170 175 173 161 151 139 131 157 110 96 92 94 100 102 76 22 52 73 70 88 78 92 93 76
216 210 254 265 296 41 253 260 280 216 184 191 194 196 195 202 213 207 198 190 185 177 171 176 175 170 162 156 137 115 82 58 62 105 131 110 82 94 107 98 59 71 75 66 87 96 78 92 94
169 175 260 267 269 138 244 264 273 216 187 202 207 202 203 214 219 203 192 188 179 173 172 178 174 170 157 154 159 158 178 175 48 224 137 138 118 107 109 103 87 90 99 105 107 110 95 66 79
163 210 271 299 328 163 269 291 280 218 202 200 200 204 209 210 207 201 195 190 182 182 183 180 178 170 171 173 166 154 139 142 147 43 50 65 101 108 126 118 126 119 117 93 78 116 117 67 64
204 196 218 241 345 14 41 331 315 286 253 221 209 205 207 203 206 207 198 197 187 189 188 185 180 174 171 161 132 102 82 64 62 49 6 316 180 149 133 146 139 133 138 148 167 121 142 153 61
242 225 199 194 104 302 71 279 290 280 293 245 227 213 216 215 208 203 196 195 195 198 189 178 174 169 166 157 151 149 156 173 195 179 185 316 221 170 158 152 149 153 152 165 211 166 151 156 177
212 201 154 158 151 29 1 168 281 301 275 261 238 223 222 212 203 201 200 199 193 185 175 171 164 165 162 160 162 162 171 185 151 111 99 7 324 252 182 163 155 160 170 177 171 166 164 166 176
159 75 57 51 77 256 240 174 273 255 246 264 250 235 224 211 203 202 193 172 169 158 158 159 158 164 164 165 165 168 172 173 155 145 164 244 262 285 294 165 153 168 178 185 187 183 161 166 157
99 94 43 9 19 248 248 184 249 262 254 237 239 239 220 200 183 179 175 168 170 170 169 163 162 168 174 173 175 178 179 178 181 185 196 211 229 240 255 211 161 173 196 186 165 165 174 165 154
167 142 155 184 211 265 280 226 253 270 289 273 227 196 154 140 154 177 184 175 178 182 176 169 170 175 175 177 183 180 173 177 189 191 196 207 221 229 213 184 167 181 182 163 145 148 197 171 178
141 168 163 136 150 208 272 280 300 324 10 32 62 91 126 170 170 174 184 177 176 179 179 177 173 173 178 179 173 169 166 170 184 197 198 202 217 214 177 161 151 172 171 161 145 146 208 185 194
139 144 106 122 148 217 274 260 245 258 264 1 110 192 226 191 174 169 183 195 186 183 172 168 166 174 178 173 171 167 168 176 178 173 196 208 212 199 170 161 148 155 180 177 162 194 220 171 223
90 97 108 122 151 157 222 262 229 214 214 208 222 224 214 190 186 194 204 196 152 150 155 159 159 164 167 165 160 152 159 166 169 174 200 202 203 190 177 170 161 169 191 181 147 213 209 198 243
162 159 143 150 205 172 172 260 273 212 211 195 211 230 217 159 165 173 168 132 121 138 159 159 162 164 165 159 152 153 151 157 163 178 197 194 190 184 171 164 158 177 186 192 180 210 209 211 246